Location: Cherryland
(37.6794°N, 122.1033°W)
Time: 14:15:21
(UTC+00:00)

CZ-4 R/B - Pass Details

Date: 14 December 2025
Orbit: 675 x 744 km, 98.7° (Epoch: 17 January)

Event Time Altitude Azimuth Distance (km) Brightness Sun altitude
Rises 13:02:55 0° 16° (NNE) 3,037 7.2 -25.5°
Reaches altitude 10° 13:05:11 10° 19° (NNE) 2,116 6.4 -25.1°
Maximum altitude 13:09:46 66° 102° (ESE) 738 4.0 -24.2°
Drops below altitude 10° 13:14:20 10° 185° (S) 2,108 6.4 -23.3°
Sets 13:16:34 0° 188° (S) 3,024 7.2 -22.8°
